VE3KSR Weather Reports


Display with metric or nautical units.
time (UTC)temp
F
wind
direction
speed
MPH
gust
MPH
rain 1hr
in
rain 24hr
in
rain mn
in
humidity
%
barometer
mb
20260831223234 -55 0 0.0 0.0 0.00 0.00 0.00 98
20260831222734 -55 0 0.0 0.0 0.00 0.00 0.00 98
20260831222235 -55 0 0.0 0.0 0.00 0.00 0.00 98
20260831221737 -55 0 0.0 0.0 0.00 0.00 0.00 98
20260831221234 -55 0 0.0 0.0 0.00 0.00 0.00 97
20260831220735 -41 0 0.0 0.0 0.00 0.00 0.00 97
20260831220234 -41 0 0.0 0.0 0.00 0.00 0.00 97
20260831215736 -47 0 0.0 0.0 0.00 0.00 0.00 97
20260831215234 -44 0 0.0 0.0 0.00 0.00 0.00 97
20260831214734 -42 0 0.0 0.0 0.00 0.00 0.00 96
20260831214234 -45 0 0.0 0.0 0.00 0.00 0.00 97
20260831213735 -47 0 0.0 0.0 0.00 0.00 0.00 98
20260831213234 -50 0 0.0 0.0 0.00 0.00 0.00 98
20260831212734 -47 0 0.0 0.0 0.00 0.00 0.00 98
20260831212234 -45 0 0.0 0.0 0.00 0.00 0.00 98
20260831211734 -45 0 0.0 0.0 0.00 0.00 0.00 98
20260831211234 -46 0 0.0 0.0 0.00 0.00 0.00 99
20260831210736 -45 0 0.0 0.0 0.00 0.00 0.00 98
20260831210234 -47 0 0.0 0.0 0.00 0.00 0.00 98
20260831205841 -46 0 0.0 0.0 0.00 0.00 0.00 99
20260831205735 -46 0 0.0 0.0 0.00 0.00 0.00 99
20260831205234 -48 0 0.0 0.0 0.00 0.00 0.00 99
20260831204734 -51 0 0.0 0.0 0.00 0.00 0.00 99
20260831204235 -53 0 0.0 0.0 0.00 0.00 0.00 98
20260831203734 -45 0 0.0 0.0 0.00 0.00 0.00 98
20260831203234 -39 0 0.0 0.0 0.00 0.00 0.00 100
20260831202838 -48 319 0.0 2.0 0.00 0.00 0.00 100
20260831202734 -48 319 0.0 2.0 0.00 0.00 0.00 100
20260831202254 -52 0 0.0 0.0 0.00 0.00 0.00 100
20260831202234 -54 0 0.0 0.0 0.00 0.00 0.00 100
20260831201734 -52 0 0.0 0.0 0.00 0.00 0.00 100
20260831201234 -41 0 0.0 0.0 0.00 0.00 0.00 100
20260831200735 -43 0 0.0 0.0 0.00 0.00 0.00 100
20260831200234 -50 0 0.0 0.0 0.00 0.00 0.00 100
20260831195838 -52 0 0.0 0.0 0.00 0.00 0.00 100
20260831195734 -52 0 0.0 0.0 0.00 0.00 0.00 100
20260831195234 -48 0 0.0 0.0 0.00 0.00 0.00 100
20260831194734 -55 0 0.0 0.0 0.00 0.00 0.00 100
20260831194234 -55 0 0.0 0.0 0.00 0.00 0.00 100
20260831193734 -55 0 0.0 0.0 0.00 0.00 0.00 100
20260831193234 -55 0 0.0 0.0 0.00 0.00 0.00 97
20260831192734 -51 0 0.0 0.0 0.00 0.00 0.00 95
20260831192254 -55 0 0.0 0.0 0.00 0.00 0.00 94
20260831192235 -55 0 0.0 0.0 0.00 0.00 0.00 93
20260831191735 -55 0 0.0 0.0 0.00 0.00 0.00 94
20260831191254 -50 0 0.0 0.0 0.00 0.00 0.00 95
20260831191234 -55 0 0.0 0.0 0.00 0.00 0.00 95
20260831190735 -50 0 0.0 0.0 0.00 0.00 0.00 95
20260831190235 -55 0 0.0 0.0 0.00 0.00 0.00 96
20260831185838 -55 0 0.0 0.0 0.00 0.00 0.00 98
20260831185735 -55 0 0.0 0.0 0.00 0.00 0.00 98
20260831185234 -53 0 0.0 0.0 0.00 0.00 0.00 96
20260831184738 -55 0 0.0 0.0 0.00 0.00 0.00 96
20260831184253 -55 0 0.0 0.0 0.00 0.00 0.00 97
20260831184235 0 0 0.0 0.0 0.00 0.00 0.00 97
20260831183735 -55 0 0.0 0.0 0.00 0.00 0.00 97
20260831183234 0 328 0.0 3.0 0.00 0.00 0.00 98
20260831182736 0 0 0.0 0.0 0.00 0.00 0.00 98
20260831182253 0 328 0.0 3.0 0.00 0.00 0.00 98
20260831182234 0 0 0.0 0.0 0.00 0.00 0.00 98
20260831181735 0 328 0.0 3.0 0.00 0.00 0.00 98
20260831181254 0 328 0.0 3.0 0.00 0.00 0.00 100
20260831181234 0 328 0.0 3.0 0.00 0.00 0.00 99
20260831180735 0 328 0.0 3.0 0.00 0.00 0.00 100
20260831180234 0 0 0.0 0.0 0.00 0.00 0.00 100
20260831175734 0 281 0.0 2.0 0.00 0.00 0.00 100
20260831175234 0 271 3.0 16.0 0.00 0.00 0.00 100
20260831174734 0 0 0.0 0.0 0.00 0.00 0.00 100
20260831174253 0 0 0.0 0.0 0.00 0.00 0.00 100
20260831174235 0 0 0.0 0.0 0.00 0.00 0.00 100
20260831173734 0 0 0.0 0.0 0.00 0.00 0.00 100
20260831173234 -55 0 0.0 0.0 0.00 0.00 0.00 100
20260831172837 0 0 0.0 0.0 0.00 0.00 0.00 100
20260831172734 0 0 0.0 0.0 0.00 0.00 0.00 100
20260831172234 0 0 0.0 0.0 0.00 0.00 0.00 100
20260831170734 0 0 0.0 0.0 0.00 0.00 0.00 96
20260831170234 0 0 0.0 0.0 0.00 0.00 0.00 100
20260831165735 0 0 0.0 0.0 0.00 0.00 0.00 100
20260831165234 0 0 0.0 0.0 0.00 0.00 0.00 100
20260831164735 0 0 0.0 0.0 0.00 0.00 0.00 100
20260831164253 0 0 0.0 0.0 0.00 0.00 0.00 100
20260831164234 0 0 0.0 0.0 0.00 0.00 0.00 100
20260831163734 0 0 0.0 0.0 0.00 0.00 0.00 100
20260831163234 0 0 0.0 0.0 0.00 0.00 0.00 100
20260831162734 0 0 0.0 0.0 0.00 0.00 0.00 100
20260831162253 0 0 0.0 0.0 0.00 0.00 0.00 100
20260831162234 0 0 0.0 0.0 0.00 0.00 0.00 100
20260831161734 0 0 0.0 0.0 0.00 0.00 0.00 100
20260831161237 0 0 0.0 0.0 0.00 0.00 0.00 100
20260831160735 0 0 0.0 0.0 0.00 0.00 0.00 100
20260831160235 0 0 0.0 0.0 0.00 0.00 0.00 100
20260831155735 0 0 0.0 0.0 0.00 0.00 0.00 100
20260831155235 0 0 0.0 0.0 0.00 0.00 0.00 100
20260831154734 0 0 0.0 0.0 0.00 0.00 0.00 100
20260831154255 0 0 0.0 0.0 0.00 0.00 0.00 100
20260831154234 0 0 0.0 0.0 0.00 0.00 0.00 100
20260831153734 0 0 0.0 0.0 0.00 0.00 0.00 100
20260831153235 0 0 0.0 0.0 0.00 0.00 0.00 100
20260831152835 70 0 0.0 0.0 0.00 0.00 0.00 100
20260831152735 70 0 0.0 0.0 0.00 0.00 0.00 100
20260831152253 0 0 0.0 0.0 0.00 0.00 0.00 100
20260831152235 0 0 0.0 0.0 0.00 0.00 0.00 100
20260831151734 0 0 0.0 0.0 0.00 0.00 0.00 100
20260831151253 0 0 0.0 0.0 0.00 0.00 0.00 99
20260831151234 0 0 0.0 0.0 0.00 0.00 0.00 100
20260831150735 0 0 0.0 0.0 0.00 0.00 0.00 99
20260831150234 0 0 0.0 0.0 0.00 0.00 0.00 100
20260831145834 0 0 0.0 0.0 0.00 0.00 0.00 100
20260831145734 0 0 0.0 0.0 0.00 0.00 0.00 100
20260831145234 0 0 0.0 0.0 0.00 0.00 0.00 100
20260831144735 0 0 0.0 0.0 0.00 0.00 0.00 100
20260831144235 72 0 0.0 0.0 0.00 0.00 0.00 100
20260831143736 0 0 0.0 0.0 0.00 0.00 0.00 100
20260831143235 0 0 0.0 0.0 0.00 0.00 0.00 100
20260831142835 0 0 0.0 0.0 0.00 0.00 0.00 100
20260831142736 0 0 0.0 0.0 0.00 0.00 0.00 100
20260831142254 0 0 0.0 0.0 0.00 0.00 0.00 100
20260831142236 0 0 0.0 0.0 0.00 0.00 0.00 100
20260831141735 0 0 0.0 0.0 0.00 0.00 0.00 100
20260831141254 0 0 0.0 0.0 0.00 0.00 0.00 100
20260831141235 0 0 0.0 0.0 0.00 0.00 0.00 100
20260831140735 0 0 0.0 0.0 0.00 0.00 0.00 100
20260831140237 0 0 0.0 0.0 0.00 0.00 0.00 100
20260831135735 0 0 0.0 0.0 0.00 0.00 0.00 100
20260831135235 0 0 0.0 0.0 0.00 0.00 0.00 100
20260831134735 0 0 0.0 0.0 0.00 0.00 0.00 100
20260831134253 0 0 0.0 0.0 0.00 0.00 0.00 100
20260831134235 0 0 0.0 0.0 0.00 0.00 0.00 100
20260831133735 0 0 0.0 0.0 0.00 0.00 0.00 100
20260831133236 0 0 0.0 0.0 0.00 0.00 0.00 100
20260831132832 0 0 0.0 0.0 0.00 0.00 0.00 100
20260831132735 0 0 0.0 0.0 0.00 0.00 0.00 100
20260831132234 0 0 0.0 0.0 0.00 0.00 0.00 100
20260831131735 0 0 0.0 0.0 0.00 0.00 0.00 100
20260831131252 0 0 0.0 0.0 0.00 0.00 0.00 100
20260831131236 0 0 0.0 0.0 0.00 0.00 0.00 100
20260831130735 0 0 0.0 0.0 0.00 0.00 0.00 100
20260831130235 0 0 0.0 0.0 0.00 0.00 0.00 100
20260831125832 0 0 0.0 0.0 0.00 0.00 0.00 100
20260831125735 0 0 0.0 0.0 0.00 0.00 0.00 100
20260831125235 0 0 0.0 0.0 0.00 0.00 0.00 100
20260831124735 0 0 0.0 0.0 0.00 0.00 0.00 100
20260831124253 0 0 0.0 0.0 0.00 0.00 0.00 100
20260831124235 0 0 0.0 0.0 0.00 0.00 0.00 100
20260831123737 0 0 0.0 0.0 0.00 0.00 0.00 100
20260831123235 69 0 0.0 0.0 0.00 0.00 0.00 100
20260831122735 69 0 0.0 0.0 0.00 0.00 0.00 100
20260831122253 0 0 0.0 0.0 0.00 0.00 0.00 100
20260831122235 0 0 0.0 0.0 0.00 0.00 0.00 100
20260831121735 0 0 0.0 0.0 0.00 0.00 0.00 100
20260831121253 0 0 0.0 0.0 0.00 0.00 0.00 100
20260831121235 0 0 0.0 0.0 0.00 0.00 0.00 100
20260831120735 0 0 0.0 0.0 0.00 0.00 0.00 100
20260831120235 0 0 0.0 0.0 0.00 0.00 0.00 100
20260831115830 0 0 0.0 0.0 0.00 0.00 0.00 100
20260831115735 0 0 0.0 0.0 0.00 0.00 0.00 100
20260831115236 0 0 0.0 0.0 0.00 0.00 0.00 100
20260831114735 0 0 0.0 0.0 0.00 0.00 0.00 100
20260831114254 0 0 0.0 0.0 0.00 0.00 0.00 100
20260831114236 0 0 0.0 0.0 0.00 0.00 0.00 100
20260831113735 0 0 0.0 0.0 0.00 0.00 0.00 100
20260831113235 0 0 0.0 0.0 0.00 0.00 0.00 100
20260831112735 66 0 0.0 0.0 0.00 0.00 0.00 100
20260831112253 0 0 0.0 0.0 0.00 0.00 0.00 100
20260831112235 0 0 0.0 0.0 0.00 0.00 0.00 100
20260831111736 0 0 0.0 0.0 0.00 0.00 0.00 100
20260831111235 0 0 0.0 0.0 0.00 0.00 0.00 100
20260831110737 0 0 0.0 0.0 0.00 0.00 0.00 100
20260831110235 0 0 0.0 0.0 0.00 0.00 0.00 100
20260831105829 0 0 0.0 0.0 0.00 0.00 0.00 100
20260831105735 0 0 0.0 0.0 0.00 0.00 0.00 100
20260831105235 0 0 0.0 0.0 0.00 0.00 0.00 100
20260831104735 0 0 0.0 0.0 0.00 0.00 0.00 100
20260831104252 0 0 0.0 0.0 0.00 0.00 0.00 100
20260831104235 0 0 0.0 0.0 0.00 0.00 0.00 100
20260831103738 0 0 0.0 0.0 0.00 0.00 0.00 100
20260831103235 0 0 0.0 0.0 0.00 0.00 0.00 100
20260831102829 0 0 0.0 0.0 0.00 0.00 0.00 100
20260831102735 0 0 0.0 0.0 0.00 0.00 0.00 100
20260831102252 0 0 0.0 0.0 0.00 0.00 0.00 100
20260831102235 0 0 0.0 0.0 0.00 0.00 0.00 100
20260831101735 0 0 0.0 0.0 0.00 0.00 0.00 100
20260831101252 0 0 0.0 0.0 0.00 0.00 0.00 100
20260831101235 0 0 0.0 0.0 0.00 0.00 0.00 100
20260831100735 0 0 0.0 0.0 0.00 0.00 0.00 100
20260831100235 0 0 0.0 0.0 0.00 0.00 0.00 100
20260831095828 0 0 0.0 0.0 0.00 0.00 0.00 100
20260831095735 0 0 0.0 0.0 0.00 0.00 0.00 100
20260831095235 0 0 0.0 0.0 0.00 0.00 0.00 100
20260831094735 0 0 0.0 0.0 0.00 0.00 0.00 100
20260831094252 0 0 0.0 0.0 0.00 0.00 0.00 100
20260831094238 0 0 0.0 0.0 0.00 0.00 0.00 100
20260831093735 0 0 0.0 0.0 0.00 0.00 0.00 100
20260831093236 0 0 0.0 0.0 0.00 0.00 0.00 100
20260831092828 0 0 0.0 0.0 0.00 0.00 0.00 100
20260831092736 0 0 0.0 0.0 0.00 0.00 0.00 100
20260831092252 0 0 0.0 0.0 0.00 0.00 0.00 100
20260831092235 0 0 0.0 0.0 0.00 0.00 0.00 100
20260831091735 0 0 0.0 0.0 0.00 0.00 0.00 100
20260831091236 0 0 0.0 0.0 0.00 0.00 0.00 100
20260831090735 0 0 0.0 0.0 0.00 0.00 0.00 100
20260831090235 0 0 0.0 0.0 0.00 0.00 0.00 100
20260831085735 0 0 0.0 0.0 0.00 0.00 0.00 100
20260831085235 0 0 0.0 0.0 0.00 0.00 0.00 100
20260831084735 24 0 0.0 0.0 0.00 0.00 0.00 100
20260831084237 0 0 0.0 0.0 0.00 0.00 0.00 100
20260831083735 0 0 0.0 0.0 0.00 0.00 0.00 100
20260831083236 67 0 0.0 0.0 0.00 0.00 0.00 100
20260831082735 0 0 0.0 0.0 0.00 0.00 0.00 100
20260831082235 0 0 0.0 0.0 0.00 0.00 0.00 100
20260831081735 0 0 0.0 0.0 0.00 0.00 0.00 100
20260831081252 0 0 0.0 0.0 0.00 0.00 0.00 100
20260831081237 0 0 0.0 0.0 0.00 0.00 0.00 100
20260831080735 0 0 0.0 0.0 0.00 0.00 0.00 100
20260831080235 0 0 0.0 0.0 0.00 0.00 0.00 100
20260831075827 0 0 0.0 0.0 0.00 0.00 0.00 100
20260831075735 0 0 0.0 0.0 0.00 0.00 0.00 100
20260831075236 0 0 0.0 0.0 0.00 0.00 0.00 100
20260831074737 0 0 0.0 0.0 0.00 0.00 0.00 100
20260831074252 0 0 0.0 0.0 0.00 0.00 0.00 100
20260831074235 0 0 0.0 0.0 0.00 0.00 0.00 100
20260831073735 0 0 0.0 0.0 0.00 0.00 0.00 100
20260831073235 0 0 0.0 0.0 0.00 0.00 0.00 100
20260831072826 0 0 0.0 0.0 0.00 0.00 0.00 100
20260831072735 0 0 0.0 0.0 0.00 0.00 0.00 100
20260831072251 0 0 0.0 0.0 0.00 0.00 0.00 100
20260831072235 0 0 0.0 0.0 0.00 0.00 0.00 100
20260831071735 0 0 0.0 0.0 0.00 0.00 0.00 100
20260831071251 0 0 0.0 0.0 0.00 0.00 0.00 100
20260831071235 0 0 0.0 0.0 0.00 0.00 0.00 100
20260831070736 0 0 0.0 0.0 0.00 0.00 0.00 100
20260831070235 0 0 0.0 0.0 0.00 0.00 0.00 100
20260831065738 0 0 0.0 0.0 0.00 0.00 0.00 100
20260831065237 0 0 0.0 0.0 0.00 0.00 0.00 100
20260831064735 0 0 0.0 0.0 0.00 0.00 0.00 100
20260831064236 0 0 0.0 0.0 0.00 0.00 0.00 100
20260831064116 0 0 0.0 0.0 0.00 0.00 0.00 100
20260831063735 0 0 0.0 0.0 0.00 0.00 0.00 100
20260831063236 0 0 0.0 0.0 0.00 0.00 0.00 100
20260831063008 0 0 0.0 0.0 0.00 0.00 0.00 100
20260831062824 0 0 0.0 0.0 0.00 0.00 0.00 100
20260831062736 0 0 0.0 0.0 0.00 0.00 0.00 100
20260831062237 0 0 0.0 0.0 0.00 0.00 0.00 100
20260831061736 0 0 0.0 0.0 0.00 0.00 0.00 100
20260831061251 0 0 0.0 0.0 0.00 0.00 0.00 100
20260831061236 0 0 0.0 0.0 0.00 0.00 0.00 100
20260831060736 0 0 0.0 0.0 0.00 0.00 0.00 100
20260831060235 0 0 0.0 0.0 0.00 0.00 0.00 100
20260831055825 0 0 0.0 0.0 0.00 0.00 0.00 100
20260831055737 0 0 0.0 0.0 0.00 0.00 0.00 100
20260831055237 0 0 0.0 0.0 0.00 0.00 0.00 100
20260831054736 0 0 0.0 0.0 0.00 0.00 0.00 100
20260831054236 0 0 0.0 0.0 0.00 0.00 0.00 100
20260831053924 0 0 0.0 0.0 0.00 0.00 0.00 100
20260831053736 0 0 0.0 0.0 0.00 0.00 0.00 100
20260831053236 69 0 0.0 0.0 0.00 0.00 0.00 100
20260831052736 69 0 0.0 0.0 0.00 0.00 0.00 100
20260831052236 69 0 0.0 0.0 0.00 0.00 0.00 100
20260831051825 0 0 0.0 0.0 0.00 0.00 0.00 100
20260831051736 0 0 0.0 0.0 0.00 0.00 0.00 100
20260831051236 63 0 0.0 0.0 0.00 0.00 0.00 100
20260831050821 0 0 0.0 0.0 0.00 0.00 0.00 100
20260831050736 0 0 0.0 0.0 0.00 0.00 0.00 100
20260831050237 66 0 0.0 0.0 0.00 0.00 0.00 100
20260831045822 66 0 0.0 0.0 0.00 0.00 0.00 100
20260831045736 66 0 0.0 0.0 0.00 0.00 0.00 100
20260831045237 0 0 0.0 0.0 0.00 0.00 0.00 100
20260831044736 68 0 0.0 0.0 0.00 0.00 0.00 100
20260831044250 0 0 0.0 0.0 0.00 0.00 0.00 100
20260831044236 0 0 0.0 0.0 0.00 0.00 0.00 100
20260831043736 0 0 0.0 0.0 0.00 0.00 0.00 100
20260831043236 0 0 0.0 0.0 0.00 0.00 0.00 100
20260831042822 0 0 0.0 0.0 0.00 0.00 0.00 100
20260831042736 0 0 0.0 0.0 0.00 0.00 0.00 100
20260831042236 0 0 0.0 0.0 0.00 0.00 0.00 100
20260831042105 0 0 0.0 0.0 0.00 0.00 0.00 100
20260831041737 0 0 0.0 0.0 0.00 0.00 0.00 100
20260831041251 0 0 0.0 0.0 0.00 0.00 0.00 100
20260831041238 0 0 0.0 0.0 0.00 0.00 0.00 100
20260831040736 0 0 0.0 0.0 0.00 0.00 0.00 100
20260831040236 0 0 0.0 0.0 0.00 0.00 0.00 100
20260831035736 0 0 0.0 0.0 0.00 0.00 0.00 100
20260831035236 0 0 0.0 0.0 0.00 0.00 0.00 100
20260831035104 0 0 0.0 0.0 0.00 0.00 0.00 100
20260831034736 0 0 0.0 0.0 0.00 0.00 0.00 100
20260831034250 0 0 0.0 0.0 0.00 0.00 0.00 100
20260831034238 0 0 0.0 0.0 0.00 0.00 0.00 100
20260831033736 0 0 0.0 0.0 0.00 0.00 0.00 100
20260831033252 0 0 0.0 0.0 0.00 0.00 0.00 100
20260831033236 0 0 0.0 0.0 0.00 0.00 0.00 100
20260831032736 0 0 0.0 0.0 0.00 0.00 0.00 100
20260831032236 0 0 0.0 0.0 0.00 0.00 0.00 100
20260831031736 0 0 0.0 0.0 0.00 0.00 0.00 100
20260831031240 0 0 0.0 0.0 0.00 0.00 0.00 100
20260831030736 0 0 0.0 0.0 0.00 0.00 0.00 100
20260831030236 0 0 0.0 0.0 0.00 0.00 0.00 100
20260831025951 0 0 0.0 0.0 0.00 0.00 0.00 100
20260831025736 0 0 0.0 0.0 0.00 0.00 0.00 100
20260831025237 0 0 0.0 0.0 0.00 0.00 0.00 100
20260831024916 0 0 0.0 0.0 0.00 0.00 0.00 100
20260831024736 0 0 0.0 0.0 0.00 0.00 0.00 100
20260831024237 0 0 0.0 0.0 0.00 0.00 0.00 100
20260831024230 0 0 0.0 0.0 0.00 0.00 0.00 100
20260831023736 0 0 0.0 0.0 0.00 0.00 0.00 100
20260831023236 0 0 0.0 0.0 0.00 0.00 0.00 100
20260831022736 0 0 0.0 0.0 0.00 0.00 0.00 100
20260831022236 0 0 0.0 0.0 0.00 0.00 0.00 100
20260831021736 0 0 0.0 0.0 0.00 0.00 0.00 100
20260831021416 14 0 0.0 0.0 0.00 0.00 0.00 100
20260831021236 14 0 0.0 0.0 0.00 0.00 0.00 100
20260831020736 14 0 0.0 0.0 0.00 0.00 0.00 100
20260831020238 19 0 0.0 0.0 0.00 0.00 0.00 100
20260831015736 20 0 0.0 0.0 0.00 0.00 0.00 100
20260831015236 21 0 0.0 0.0 0.00 0.00 0.00 100
20260831014736 22 0 0.0 0.0 0.00 0.00 0.00 100
20260831014236 24 0 0.0 0.0 0.00 0.00 0.00 100
20260831013739 32 0 0.0 0.0 0.00 0.00 0.00 100
20260831013236 0 0 0.0 0.0 0.00 0.00 0.00 100
20260831012736 66 0 0.0 0.0 0.00 0.00 0.00 100
20260831012238 0 0 0.0 0.0 0.00 0.00 0.00 100
20260831011736 0 0 0.0 0.0 0.00 0.00 0.00 100
20260831011237 0 0 0.0 0.0 0.00 0.00 0.00 100
20260831010736 -50 0 0.0 0.0 0.00 0.00 0.00 100
20260831010245 21 0 0.0 0.0 0.00 0.00 0.00 100
20260831010243 56 0 0.0 0.0 0.00 0.00 0.00 100
20260831010241 61 0 0.0 0.0 0.00 0.00 0.00 100
20260831010239 62 0 0.0 0.0 0.00 0.00 0.00 100
20260831010237 61 0 0.0 0.0 0.00 0.00 0.00 100
20260831005737 0 0 0.0 0.0 0.00 0.00 0.00 100
20260831005236 27 0 0.0 0.0 0.00 0.00 0.00 100
20260831004236 33 0 0.0 0.0 0.00 0.00 0.00 100
20260831003736 2 0 0.0 0.0 0.00 0.00 0.00 100
20260831003236 3 0 0.0 0.0 0.00 0.00 0.00 100
20260831002736 6 0 0.0 0.0 0.00 0.00 0.00 100
20260831002236 5 0 0.0 0.0 0.00 0.00 0.00 100
20260831001738 9 0 0.0 0.0 0.00 0.00 0.00 100
20260831001236 12 0 0.0 0.0 0.00 0.00 0.00 100
20260831000736 13 0 0.0 0.0 0.00 0.00 0.00 100
20260831000236 16 0 0.0 0.0 0.00 0.00 0.00 100
20260830235736 20 0 0.0 0.0 0.00 0.00 0.00 100
20260830235236 17 0 0.0 0.0 0.00 0.00 0.00 100
20260830234736 16 0 0.0 0.0 0.00 0.00 0.00 100
20260830234236 13 0 0.0 0.0 0.00 0.00 0.00 100
20260830233736 18 0 0.0 0.0 0.00 0.00 0.00 100
20260830233236 13 0 0.0 0.0 0.00 0.00 0.00 100
20260830232736 14 0 0.0 0.0 0.00 0.00 0.00 100
20260830232236 14 0 0.0 0.0 0.00 0.00 0.00 100
20260830231736 21 0 0.0 0.0 0.00 0.00 0.00 100
20260830231237 56 0 0.0 0.0 0.00 0.00 0.00 100
20260830230736 61 0 0.0 0.0 0.00 0.00 0.00 100
20260830230236 62 0 0.0 0.0 0.00 0.00 0.00 100
20260830225737 61 0 0.0 0.0 0.00 0.00 0.00 100
20260830225236 60 0 0.0 0.0 0.00 0.00 0.00 100
20260830224739 -2 0 0.0 0.0 0.00 0.00 0.00 100
20260830224236 4 0 0.0 0.0 0.00 0.00 0.00 100
20260830223737 63 0 0.0 0.0 0.00 0.00 0.00 100